Temperature
21 22 22 21 21 20 20 20 19 19 19 19 19 19 19 19 18 18 18 18 18 18 18 18 18 18 18 18 18 18 18 18 18 18 18 18 18 17 17 17 17 17 17
22 22 22 21 21 21 20 20 19 19 19 19 18 19 18 18 18 18 18 18 18 18 18 18 18 18 18 18 18 18 18 18 18 18 18 17 17 17 17 17 17 17 17
22 22 22 21 21 21 20 20 19 19 19 19 19 18 18 18 18 18 18 18 18 18 18 18 18 18 18 18 18 18 18 18 18 17 17 17 17 17 17 17 17 17 17
22 22 22 21 21 21 20 20 19 19 19 19 19 18 18 18 18 18 18 18 18 18 18 18 18 18 18 18 18 18 18 17 17 17 17 17 17 17 17 17 17 17 17
21 22 22 21 21 21 20 20 20 19 19 19 19 18 18 18 18 18 18 18 18 18 18 18 18 18 18 18 18 18 17 17 17 17 17 17 17 17 17 17 17 17 17
21 21 22 21 21 21 20 20 20 19 19 19 19 18 18 18 18 18 18 18 18 18 18 18 18 18 18 18 18 18 17 17 17 17 17 17 17 17 17 17 17 17 17
21 21 22 21 21 20 20 20 20 19 19 19 19 18 18 18 18 18 18 18 18 18 18 18 18 18 18 18 18 18 17 17 17 17 17 17 17 17 17 17 17 17 17
21 21 22 21 21 20 20 20 19 19 19 19 18 18 18 18 18 18 18 18 18 18 18 18 18 18 18 18 18 18 18 17 17 17 17 18 17 17 17 17 17 17 17
21 21 21 21 20 20 20 20 19 19 19 19 18 18 18 18 18 18 18 18 18 18 18 18 18 18 18 18 18 18 18 18 17 17 17 18 18 17 17 17 17 17 17
21 20 21 20 20 20 20 19 19 19 19 19 19 18 18 18 18 18 18 18 18 18 18 18 18 18 18 18 18 18 18 18 18 17 18 18 18 17 17 17 17 17 17
21 20 20 19 20 19 19 19 19 19 19 19 19 19 19 18 18 18 18 18 18 18 18 18 18 18 18 18 18 18 18 18 18 18 18 18 18 17 17 17 17 17 17
21 20 20 19 19 19 18 19 19 18 19 18 18 19 18 18 18 18 18 18 18 18 18 18 18 18 18 18 18 18 18 18 17 18 18 18 18 17 17 17 17 17 17
21 20 20 19 19 19 19 19 18 18 18 18 18 18 18 18 18 18 18 18 18 18 18 18 18 18 18 18 18 18 18 18 18 18 18 18 18 18 17 17 17 17 17
21 21 20 20 19 19 19 19 18 18 18 18 18 18 18 18 18 18 18 18 18 18 18 18 18 18 18 18 18 18 18 18 18 18 18 18 18 18 17 17 17 17 17
21 21 20 20 19 19 19 19 19 18 18 18 18 18 18 18 18 18 18 18 18 18 18 18 18 18 18 18 18 18 18 18 17 18 18 18 18 18 17 17 17 17 17
21 20 20 19 19 19 19 19 19 19 19 18 18 18 18 18 18 18 18 18 18 18 18 18 18 17 18 17 18 18 18 18 18 18 18 18 18 18 18 17 17 17 17
20 20 19 19 19 19 19 19 19 19 19 19 18 18 18 18 18 18 18 18 18 17 18 18 17 17 18 18 17 18 18 18 17 17 17 18 18 18 17 17 17 17 17
20 19 19 19 19 19 19 18 19 19 19 18 18 18 18 18 18 18 18 18 18 17 17 18 18 18 18 18 17 18 18 17 17 17 17 17 17 17 17 17 17 17 17
20 19 19 19 19 19 18 18 18 19 18 18 18 18 18 18 18 18 18 18 18 17 17 18 18 18 17 17 17 17 17 17 17 17 17 17 17 17 17 17 17 17 17
19 19 19 18 18 18 18 18 18 18 18 18 18 18 18 18 18 18 17 17 17 17 17 17 17 17 17 17 18 17 17 17 17 17 17 17 17 17 17 17 17 17 17
19 19 18 18 18 18 18 18 18 18 18 18 18 18 18 17 18 18 17 17 17 17 17 17 17 17 17 17 17 17 18 17 17 17 17 17 17 17 17 17 17 17 17
19 18 18 18 18 18 18 18 18 18 18 18 18 18 18 17 17 17 17 17 17 17 17 17 17 17 17 17 17 18 18 18 18 18 18 17 17 17 17 17 17 17 16
18 18 18 18 18 18 18 18 18 18 17 17 17 18 17 17 17 17 17 17 17 17 17 17 17 17 17 17 17 18 18 18 18 18 18 18 17 17 17 17 17 17 16
18 18 18 18 18 18 17 18 18 18 17 18 18 17 17 17 16 17 17 17 17 17 17 17 16 17 17 17 17 18 18 18 18 18 18 18 18 17 17 17 17 17 17
18 18 18 18 17 17 17 18 18 17 17 17 17 17 17 17 16 16 16 16 17 16 16 16 16 16 16 17 17 18 18 18 18 18 18 18 18 18 18 17 17 17 17
18 18 17 17 17 17 17 17 17 17 17 17 17 17 17 17 16 16 16 16 16 16 16 16 16 16 16 17 17 17 18 18 18 18 18 18 18 18 18 17 17 17 17
Wind_Speed
19 19 20 18 17 17 16 15 16 16 15 15 14 13 13 13 13 13 13 12 12 12 12 12 12 12 12 12 13 14 15 15 16 16 16 16 16 15 14 15 17 16 17
22 21 21 19 18 17 17 17 16 16 16 15 14 13 13 12 12 12 12 12 12 12 12 12 12 13 13 13 13 13 14 14 14 15 15 15 14 13 13 14 16 15 16
23 21 21 19 19 18 17 17 17 16 16 15 14 13 12 12 12 12 12 12 12 12 12 12 13 13 13 13 13 12 12 13 13 14 13 12 13 15 16 17 17 16 16
22 20 20 20 19 18 18 18 17 16 16 15 14 13 12 12 12 12 12 12 12 12 12 12 13 13 13 13 12 11 11 10 10 10 10 12 13 14 15 16 16 15 15
21 20 22 21 20 19 18 17 17 16 15 14 14 13 12 12 12 12 12 12 12 12 12 12 12 13 13 12 11 9 8 7 6 7 12 15 14 14 14 15 15 15 15
21 21 22 21 20 19 18 17 17 16 15 14 14 13 12 12 12 12 13 13 12 12 12 12 12 12 11 10 8 6 5 4 4 10 14 14 14 14 14 14 14 14 14
21 21 21 21 20 19 17 17 16 16 15 14 14 13 12 12 12 12 12 12 12 12 11 11 11 11 10 9 6 3 1 1 4 12 14 14 14 14 13 13 13 13 13
22 21 21 20 20 18 17 16 16 15 15 14 13 13 13 12 12 12 12 12 12 12 11 11 11 10 9 7 4 1 1 4 7 14 15 15 14 14 13 12 12 13 12
21 20 18 19 18 18 17 16 15 15 14 14 13 13 13 12 12 12 12 11 11 11 11 11 10 9 8 7 4 2 3 4 3 12 15 14 14 14 13 12 12 12 12
19 19 17 18 17 17 16 16 16 15 14 13 13 13 13 12 12 12 12 11 10 10 9 9 9 8 7 6 4 4 4 4 2 11 14 15 15 14 12 11 11 11 10
17 17 17 17 16 16 16 16 16 15 14 14 13 13 13 12 12 12 13 11 10 9 8 7 7 7 6 6 6 5 5 1 6 12 14 17 15 13 12 11 10 10 10
17 16 14 17 15 15 15 15 14 13 14 13 12 13 11 10 11 13 15 12 10 9 8 7 6 7 7 7 7 7 5 5 7 13 14 18 16 13 11 10 10 10 9
15 13 14 15 13 12 10 12 10 10 12 11 12 11 8 7 10 12 10 10 9 10 8 8 8 8 8 6 5 6 2 5 9 13 14 16 15 12 11 10 9 9 9
13 12 13 12 10 9 10 8 8 7 7 7 11 9 6 3 4 6 6 8 9 8 7 7 6 3 2 4 3 1 1 5 10 13 14 15 14 12 11 9 9 9 9
12 11 11 11 9 7 6 6 8 6 7 8 10 8 6 3 3 4 4 4 4 5 5 3 2 3 1 1 0 2 1 5 10 13 13 14 13 12 11 9 9 9 9
11 11 11 11 10 8 6 4 4 5 6 8 8 9 7 4 4 3 3 2 2 3 2 1 3 3 2 1 1 1 1 4 9 13 13 13 13 12 11 10 10 9 9
12 11 11 11 10 9 8 6 5 5 7 5 7 9 6 5 6 3 3 3 2 5 4 1 2 3 3 3 3 2 2 3 6 8 12 12 12 12 12 11 11 10 10
12 12 12 13 12 10 7 6 4 4 5 5 7 8 6 6 7 3 2 3 4 4 4 2 2 3 2 2 2 2 2 3 4 6 8 11 12 12 13 12 12 11 11
11 12 11 10 11 10 8 6 4 3 4 5 7 7 6 6 7 4 2 3 3 2 2 3 3 1 1 2 2 3 3 3 3 5 5 8 10 11 12 13 13 12 12
11 11 11 10 10 10 8 6 4 5 4 4 5 7 6 6 6 3 3 4 3 2 2 2 3 1 0 1 2 3 3 4 4 3 4 6 9 10 12 13 13 12 14
10 11 12 12 11 9 8 8 6 6 5 4 5 8 6 5 6 2 2 4 2 1 3 3 2 2 2 2 1 2 2 4 5 4 3 3 5 8 10 12 13 12 12
11 11 12 12 12 11 8 7 6 6 4 4 4 6 7 6 7 6 2 3 3 2 3 1 1 0 3 2 1 1 2 2 3 5 5 5 5 6 8 12 12 12 11
11 12 12 12 12 11 9 7 6 5 4 4 5 5 5 6 6 2 4 1 3 3 4 3 3 3 2 2 2 0 0 0 2 2 4 4 4 4 4 7 11 12 12
11 12 11 11 11 11 10 10 11 8 7 7 6 6 5 5 5 5 4 2 1 0 5 4 4 2 1 2 2 1 1 1 0 1 2 3 6 5 4 4 6 11 10
10 11 11 11 11 11 10 11 10 8 7 6 6 8 7 5 4 5 5 4 2 1 3 2 3 0 1 2 2 2 2 2 3 2 2 2 3 4 5 3 3 7 11
9 10 11 12 11 10 10 10 10 10 9 8 9 9 7 5 5 5 6 4 3 2 4 2 2 2 1 2 3 2 1 2 2 2 2 3 3 3 4 4 3 4 9
Wind_Direction
128 129 130 127 127 127 128 128 126 124 122 118 114 110 106 101 97 93 91 89 89 88 87 86 86 86 87 86 86 88 90 90 92 94 95 95 95 98 102 105 101 99 103
126 131 131 129 128 127 128 127 127 125 123 121 118 115 111 106 101 98 96 93 92 91 90 88 88 89 90 91 92 94 98 99 101 102 102 98 96 98 99 100 99 104 106
126 131 132 130 129 129 128 128 128 127 125 123 121 118 114 110 105 101 98 96 94 93 91 91 92 93 94 95 97 100 105 108 111 111 107 101 98 94 95 99 103 106 104
129 136 134 133 131 130 129 129 129 128 127 125 123 119 116 112 109 105 101 99 97 96 95 94 95 96 97 98 101 106 110 113 118 121 108 103 102 100 102 105 106 106 105
132 132 132 136 134 132 131 131 131 130 129 127 124 120 117 113 110 107 104 101 98 96 96 97 98 100 101 103 106 112 115 117 124 108 93 94 98 105 105 107 107 107 105
131 131 136 138 136 135 135 135 134 134 132 130 126 123 120 116 112 108 105 102 99 98 98 98 100 103 106 107 112 118 121 127 128 108 108 106 107 111 110 109 110 110 108
135 133 139 140 139 138 139 139 137 136 134 131 129 126 121 118 115 110 105 103 101 98 98 100 103 106 112 114 118 128 151 350 129 115 108 105 110 111 110 110 112 112 111
136 134 139 142 142 142 142 141 140 139 137 135 134 131 125 121 117 114 109 107 104 100 100 102 105 110 117 124 133 175 309 341 114 113 110 110 115 112 111 110 113 111 110
134 136 143 145 146 146 146 146 145 143 141 140 139 136 132 129 125 121 116 114 110 107 105 105 107 113 121 133 159 235 296 342 90 124 117 115 118 116 116 114 114 113 113
138 142 147 150 150 152 152 152 149 147 146 144 144 143 142 141 140 136 129 123 118 115 113 114 118 124 133 148 185 240 285 320 101 115 114 120 122 120 120 118 118 119 120
143 146 156 152 155 158 156 153 153 152 152 151 153 156 158 163 157 155 134 134 132 130 128 131 141 149 158 175 205 234 263 250 93 106 113 126 126 125 125 123 124 128 127
153 156 157 153 160 163 157 152 160 163 161 171 163 171 186 179 155 142 142 147 149 150 151 162 175 182 194 190 209 226 241 154 127 113 124 131 130 131 133 133 130 131 130
157 155 154 155 162 160 144 156 166 167 164 181 166 177 186 162 140 139 153 158 169 174 181 176 197 212 193 185 202 224 211 109 108 114 133 136 136 138 139 140 140 140 142
159 153 155 152 155 149 147 157 162 161 167 169 162 182 166 163 150 143 154 170 179 185 178 186 205 193 151 161 185 213 52 95 113 118 138 142 142 145 147 149 151 152 153
161 156 154 148 143 137 137 162 164 160 167 158 155 177 164 167 150 132 134 147 180 154 169 207 160 135 106 72 211 149 129 101 120 125 139 150 149 153 156 160 162 165 164
162 157 150 144 138 138 147 168 152 157 148 149 158 163 174 160 127 123 141 154 183 156 131 166 126 143 189 171 195 124 116 108 112 131 148 158 161 164 168 171 173 172 173
161 156 152 151 150 153 163 178 165 161 153 149 148 152 167 149 130 140 150 176 177 140 133 174 175 185 197 177 178 166 147 128 126 139 152 161 167 175 179 183 183 184 187
158 159 162 167 161 161 166 182 167 167 143 141 140 145 154 134 136 154 171 169 152 158 166 173 221 209 185 174 167 181 147 137 140 158 164 166 168 175 183 191 192 193 195
155 157 163 163 162 164 167 179 171 142 129 137 142 139 149 154 150 178 151 121 179 179 182 205 161 151 164 176 170 176 166 161 164 191 171 166 165 167 176 189 195 199 204
160 164 165 165 166 165 168 172 164 144 145 148 137 130 149 166 158 181 159 143 217 190 153 79 90 76 57 206 225 167 173 162 180 182 192 174 166 177 178 179 190 205 211
166 171 170 171 171 169 172 170 166 161 161 156 143 137 160 169 154 197 144 144 227 162 117 129 135 168 230 215 182 173 190 192 190 178 197 171 177 182 174 177 187 196 203
171 175 172 172 172 175 175 169 165 153 164 161 138 144 164 164 167 184 151 182 164 122 125 136 112 219 240 197 212 198 202 198 212 194 179 186 183 178 186 189 189 190 197
176 179 178 173 174 175 170 163 159 153 169 157 148 158 165 168 179 146 146 201 146 176 154 176 187 220 246 212 229 227 94 192 184 187 201 178 163 176 194 188 185 190 197
181 179 174 172 172 172 170 168 169 172 177 175 164 153 155 164 163 155 164 145 151 195 140 195 176 213 227 245 217 179 179 163 138 155 232 180 179 186 196 200 190 183 191
176 173 173 168 168 171 175 174 174 176 176 168 155 146 157 158 166 165 157 147 169 225 136 95 100 275 287 270 268 206 200 194 229 194 194 188 200 188 186 189 187 180 191
173 173 172 167 170 173 175 175 177 180 177 168 157 157 167 160 174 170 156 153 179 169 120 124 124 208 285 340 337 319 212 219 234 215 191 197 198 192 176 172 179 183 192
Height
1502 1504 1507 1510 1512 1515 1517 1520 1522 1524 1526 1527 1529 1530 1532 1533 1534 1535 1536 1537 1538 1539 1540 1541 1541 1542 1542 1543 1544 1545 1546 1548 1549 1550 1551 1552 1553 1554 1555 1556 1557 1558 1560
1499 1504 1507 1510 1513 1516 1518 1521 1523 1525 1527 1529 1530 1532 1533 1535 1536 1537 1538 1539 1540 1541 1541 1542 1543 1543 1544 1545 1546 1547 1548 1550 1551 1552 1553 1554 1555 1556 1557 1559 1560 1561 1562
1499 1504 1508 1511 1514 1516 1519 1522 1524 1526 1528 1530 1532 1534 1535 1536 1538 1539 1540 1541 1542 1542 1543 1544 1544 1545 1546 1547 1548 1549 1551 1552 1553 1554 1555 1556 1558 1559 1560 1561 1563 1563 1565
1501 1505 1508 1512 1515 1517 1520 1522 1525 1527 1530 1532 1533 1535 1537 1538 1539 1540 1541 1542 1543 1544 1545 1546 1546 1547 1548 1549 1550 1552 1553 1554 1555 1556 1557 1558 1560 1561 1562 1564 1565 1566 1567
1502 1506 1509 1512 1515 1518 1521 1523 1526 1528 1531 1533 1535 1537 1538 1540 1541 1542 1543 1544 1545 1546 1547 1547 1548 1549 1550 1551 1553 1554 1555 1556 1557 1559 1560 1561 1562 1563 1564 1566 1567 1568 1569
1504 1507 1510 1513 1516 1519 1522 1524 1527 1529 1532 1534 1536 1538 1540 1541 1543 1544 1545 1546 1547 1548 1549 1549 1550 1551 1552 1553 1555 1556 1557 1558 1559 1560 1562 1563 1564 1565 1566 1567 1569 1570 1571
1505 1507 1511 1514 1517 1520 1523 1525 1528 1531 1533 1535 1537 1539 1541 1542 1544 1545 1546 1548 1549 1550 1551 1551 1552 1553 1554 1555 1557 1558 1559 1560 1561 1562 1563 1564 1565 1567 1568 1569 1571 1572 1573
1505 1508 1512 1515 1518 1521 1524 1526 1529 1531 1534 1536 1538 1540 1542 1544 1545 1547 1548 1549 1550 1551 1552 1553 1554 1555 1556 1557 1558 1559 1560 1560 1563 1564 1565 1565 1567 1568 1570 1571 1572 1574 1575
1506 1508 1512 1515 1519 1522 1525 1527 1530 1532 1535 1537 1539 1541 1543 1545 1546 1548 1549 1551 1552 1553 1554 1555 1556 1557 1558 1559 1560 1561 1562 1563 1564 1565 1566 1567 1568 1570 1571 1572 1574 1575 1576
1506 1509 1512 1516 1519 1522 1525 1528 1531 1533 1536 1538 1540 1542 1544 1546 1548 1549 1550 1552 1553 1554 1555 1556 1558 1558 1559 1560 1561 1563 1564 1564 1565 1566 1567 1568 1569 1571 1572 1573 1575 1576 1578
1507 1509 1512 1516 1519 1522 1525 1529 1531 1534 1536 1539 1541 1543 1545 1547 1549 1550 1552 1553 1554 1555 1557 1558 1559 1560 1561 1562 1563 1564 1565 1565 1566 1566 1567 1569 1570 1572 1573 1574 1576 1577 1579
1506 1509 1513 1516 1519 1523 1527 1529 1532 1534 1537 1539 1542 1544 1546 1548 1550 1551 1553 1554 1555 1556 1558 1559 1560 1561 1562 1563 1564 1565 1566 1566 1566 1567 1568 1570 1571 1572 1574 1575 1576 1578 1579
1504 1509 1512 1515 1519 1524 1526 1529 1532 1535 1537 1540 1542 1545 1547 1549 1551 1552 1553 1555 1556 1557 1558 1560 1561 1562 1563 1564 1565 1566 1567 1567 1567 1568 1569 1571 1572 1573 1574 1576 1577 1578 1580
1503 1508 1512 1514 1518 1523 1526 1529 1532 1535 1538 1540 1542 1545 1547 1550 1551 1553 1554 1555 1556 1557 1559 1560 1561 1563 1564 1565 1566 1567 1567 1568 1568 1569 1570 1571 1573 1574 1575 1576 1577 1579 1580
1502 1506 1510 1514 1518 1522 1525 1529 1532 1535 1538 1540 1542 1544 1547 1549 1551 1553 1554 1555 1557 1558 1559 1560 1562 1563 1564 1565 1566 1568 1568 1569 1568 1570 1571 1572 1573 1574 1575 1576 1578 1579 1580
1500 1504 1507 1511 1516 1520 1523 1528 1531 1534 1537 1540 1542 1544 1546 1549 1550 1552 1554 1555 1556 1558 1559 1560 1561 1562 1564 1565 1566 1567 1569 1569 1570 1570 1571 1572 1573 1574 1575 1576 1578 1579 1580
1498 1502 1506 1510 1514 1519 1523 1527 1531 1534 1537 1539 1541 1543 1546 1548 1549 1551 1553 1554 1556 1557 1558 1559 1561 1562 1563 1564 1565 1567 1568 1569 1569 1570 1571 1572 1572 1574 1575 1576 1578 1579 1580
1495 1500 1504 1509 1513 1517 1521 1526 1530 1533 1536 1538 1540 1542 1545 1546 1548 1550 1552 1553 1555 1556 1558 1559 1560 1562 1563 1564 1565 1566 1567 1568 1569 1570 1570 1571 1572 1573 1574 1576 1577 1578 1579
1494 1498 1502 1507 1511 1515 1519 1524 1528 1531 1534 1537 1539 1541 1543 1546 1547 1549 1551 1552 1554 1556 1557 1559 1560 1561 1562 1563 1564 1565 1566 1567 1568 1569 1570 1571 1571 1572 1573 1575 1576 1577 1578
1493 1497 1500 1505 1509 1513 1517 1522 1526 1529 1532 1535 1538 1540 1542 1545 1546 1548 1550 1551 1553 1555 1556 1557 1558 1560 1561 1562 1564 1564 1566 1566 1567 1568 1569 1570 1571 1572 1573 1574 1575 1576 1577
1491 1495 1498 1502 1506 1510 1514 1519 1523 1527 1530 1534 1537 1538 1541 1543 1545 1547 1549 1550 1552 1554 1555 1556 1557 1559 1560 1562 1563 1564 1565 1565 1566 1567 1568 1569 1570 1571 1572 1572 1573 1574 1575
1489 1492 1496 1500 1503 1508 1512 1516 1521 1524 1529 1532 1535 1537 1539 1542 1544 1546 1547 1549 1551 1552 1553 1555 1556 1558 1560 1561 1562 1563 1564 1566 1565 1566 1567 1568 1569 1570 1570 1571 1572 1573 1574
1487 1490 1493 1497 1501 1506 1510 1514 1518 1523 1527 1531 1533 1535 1538 1540 1543 1545 1546 1548 1550 1551 1552 1553 1555 1557 1559 1560 1561 1563 1563 1563 1564 1565 1566 1567 1568 1569 1570 1570 1571 1571 1572
1484 1488 1491 1495 1499 1504 1508 1511 1515 1519 1523 1527 1531 1533 1536 1539 1541 1543 1545 1547 1548 1550 1551 1552 1554 1556 1557 1559 1560 1561 1562 1562 1563 1565 1566 1566 1567 1568 1569 1569 1570 1570 1571
1483 1485 1488 1492 1497 1501 1505 1509 1513 1518 1522 1526 1529 1531 1534 1537 1540 1542 1543 1545 1547 1549 1550 1551 1552 1554 1556 1557 1559 1560 1561 1562 1563 1564 1564 1566 1566 1567 1567 1568 1569 1569 1569
1482 1484 1487 1490 1494 1498 1502 1506 1510 1515 1520 1523 1526 1529 1533 1535 1538 1540 1542 1543 1545 1547 1548 1550 1551 1553 1554 1556 1557 1559 1560 1561 1562 1562 1563 1564 1564 1565 1566 1566 1567 1568 1568